Simultaneous Nadir Overpasses (SNOs) Predictions

Prediction of SNOs between AQUA and METOP-B Satellite Orbit:

Table of predicted SNOs for the next 14.0 days since TLE Epoch: 11/10/2012
Index Date (AQUA) Time (AQUA) AQUA Lat,Lon Date (METOP-B) Time (METOP-B) METOP-B Lat,Lon Distance(km) Time Diff (sec)
1 11/10/2012 04:04:14 73.75, 113.25 11/10/2012 04:03:09 73.75, 113.32 2.20 65
2 11/10/2012 04:53:41 -73.82, -79.26 11/10/2012 04:53:50 -73.80, -79.22 1.91 9
3 11/10/2012 05:43:13 74.04, 87.87 11/10/2012 05:44:24 74.08, 88.78 28.03 71
4 11/12/2012 23:38:49 73.71, 179.69 11/12/2012 23:37:36 73.68, 179.58 4.50 73
5 11/13/2012 00:28:16 -73.81, -12.90 11/13/2012 00:28:15 -73.80, -12.83 2.73 1
6 11/13/2012 01:17:45 73.87, 154.60 11/13/2012 01:18:53 73.87, 154.67 2.48 68
7 11/15/2012 20:03:10 -73.75, 53.51 11/15/2012 20:02:42 -73.74, 53.45 2.03 28
8 11/15/2012 20:52:39 73.80,-138.97 11/15/2012 20:53:20 73.81,-139.07 2.92 41
9 11/18/2012 15:38:23 -73.68, 119.85 11/18/2012 15:37:10 -73.64, 119.62 8.31 73
10 11/18/2012 16:27:53 73.78, -72.73 11/18/2012 16:27:46 73.80, -72.68 2.69 7
11 11/18/2012 17:17:21 -73.85, 94.76 11/18/2012 17:18:28 -73.83, 94.71 2.75 67
12 11/21/2012 12:03:25 73.70, -6.44 11/21/2012 12:02:14 73.69, -6.52 2.54 71
13 11/21/2012 12:52:53 -73.80, 160.96 11/21/2012 12:52:54 -73.78, 161.00 2.78 1




NCC Satellite Simultaneous Nadir Overpasses (SNOs) Prediction Service
